[[{"header":{"parameterUnit":"m.s-1","parameterCategory":2,"la1":30.2991,"la2":30.254,"lo1":-89.0895,"lo2":-89.0444,"dy":0.0017,"dx":0.0017,"nx":28,"ny":28,"refTime":"2025-04-24T03:00:00:Z","depth":"0","parameterNumber":2,"parameterNumberName":"U-component_of_CURRENTS"},"data":[0,0,0,0,0,0,0,0,0,0,0,0,0,0,0,0,0,0,0,0,0,0,0,0,0,0,0,0,0,0,0,0,0,0,0,0,0,0,0,0,0,0,0,0,0,0,0,0,0,0,0,0,0,0,0,0,0,0,0.1653,0.1653,0,0.1688,0.1689,0.1689,0.1678,0.1678,0.1677,0.1677,0.1672,0.1672,0.1672,0,0,0,0,0,0,0,0,0,0,0,0,0,0.1576,0.1577,0.1653,0.1654,0.1654,0.1688,0.1689,0.1689,0.1678,0.1678,0.1677,0.1676,0.1671,0.1672,0.1672,0,0,0,0,0,0,0,0,0,0,0,0,0,0.1608,0.1578,0.1653,0.1655,0.1655,0.1688,0.1689,0.1689,0.1678,0.1678,0.1677,0.1676,0.1671,0.1672,0.1672,0.1692,0,0,0.1674,0.1674,0,0,0,0,0,0,0,0,0.1606,0.1611,0.1654,0.1655,0.1655,0.168,0.166,0.1689,0.1679,0.1667,0.1677,0.1676,0.1673,0.1673,0.1679,0.1692,0.1692,0.1674,0.1675,0.1675,0.1675,0,0,0,0,0,0,0,0.1604,0.1609,0.1665,0.1654,0.1656,0.1654,0.1657,0.1665,0.1672,0.1668,0.1668,0.1676,0.1672,0.1679,0.1679,0.1692,0.1674,0.1675,0.1675,0.1675,0.1741,0.1742,0,0,0,0,0,0,0.1605,0.1607,0.1664,0.1666,0.1631,0.1656,0.166,0.1671,0.1673,0.1673,0.1677,0.1675,0.1678,0.1678,0.1679,0.1709,0.1675,0.1675,0.1676,0.174,0.1741,0.1743,0,0,0,0,0,0,0.1604,0.161,0.1662,0.1639,0.1645,0.1658,0.1671,0.1672,0.1681,0.168,0.1678,0.1685,0.1677,0.1678,0.1695,0.1708,0.1676,0.1676,0.1738,0.174,0.1742,0.1765,0,0,0,0,0,0,0.1601,0.1609,0.1617,0.1639,0.1647,0.1688,0.1672,0.1674,0.1688,0.1687,0.1686,0.1685,0.1677,0.1695,0.1696,0.1708,0.1676,0.1736,0.1739,0.1742,0.1763,0.1768,0.1772,0,0,0,0,0,0.1599,0.1613,0.1617,0.1624,0.1657,0.169,0.1694,0.1698,0.1689,0.1701,0.1702,0.1685,0.1712,0.1697,0.1698,0.171,0.1735,0.1738,0.1741,0.1761,0.1767,0.1772,0,0,0,0,0,0,0.1584,0.1614,0.1619,0.1642,0.1667,0.1689,0.1698,0.1704,0.1715,0.1708,0.1702,0.1702,0.1723,0.172,0.1703,0.174,0.1722,0.1725,0.1736,0.1742,0.1747,0.1744,0.1677,0,0,0,0,0,0.1586,0.1602,0.1634,0.1652,0.1664,0.1683,0.1695,0.1701,0.1715,0.1718,0.172,0.1725,0.1739,0.1742,0.1752,0.1772,0.1778,0.1783,0.1788,0.1792,0.1793,0.1813,0.1819,0.1753,0.1753,0.1753,0,0,0.1584,0.1604,0.1613,0.165,0.1666,0.1691,0.1688,0.1709,0.1727,0.1716,0.1736,0.1743,0.175,0.1772,0.1781,0.1768,0.1819,0.1796,0.1799,0.1798,0.1817,0.1823,0.1828,0.1756,0.1755,0.1755,0,0,0.1595,0.161,0.1629,0.1652,0.1683,0.1696,0.1705,0.1732,0.1739,0.1765,0.1763,0.1781,0.1797,0.1808,0.1814,0.1856,0.1846,0.1858,0.1875,0.1895,0.19,0.1904,0.1937,0.1944,0.1857,0.1857,0.1857,0,0.1595,0.1621,0.164,0.1667,0.1685,0.17,0.1725,0.1741,0.1769,0.1781,0.1773,0.1813,0.1816,0.1848,0.1861,0.1865,0.1877,0.1848,0.1899,0.1904,0.1908,0.194,0.1948,0.1859,0.1859,0.1858,0.1858,0,0.1621,0.1642,0.1656,0.1692,0.1716,0.1738,0.1766,0.1784,0.1792,0.1809,0.1843,0.1854,0.1876,0.1884,0.1882,0.1918,0.1919,0.1903,0.1879,0.1915,0.1948,0.1955,0.1861,0.186,0.186,0.186,0,0,0.1622,0.1665,0.1671,0.1685,0.1729,0.1748,0.1781,0.1817,0.1836,0.1859,0.189,0.1916,0.192,0.193,0.1934,0.1949,0.1993,0.1937,0.1937,0.196,0.2047,0.2082,0.2093,0.198,0.1981,0.1982,0.2063,0,0.1637,0.1678,0.1702,0.1737,0.1756,0.1782,0.1814,0.1845,0.1868,0.19,0.1919,0.1949,0.1939,0.1951,0.1966,0.1989,0.2011,0.1973,0.2016,0.2018,0.2036,0.2102,0.2019,0.2088,0.2071,0.2072,0.2073,0,0.1651,0.1677,0.171,0.1751,0.1764,0.1788,0.1831,0.1863,0.1911,0.1931,0.1962,0.1979,0.202,0.1997,0.2052,0.2027,0.2041,0.2052,0.2055,0.2081,0.2066,0.2047,0.2102,0.2053,0.2084,0.2083,0.2082,0,0.1627,0.1679,0.1699,0.1715,0.1768,0.1787,0.1818,0.1868,0.1895,0.1952,0.1978,0.2023,0.2053,0.2074,0.2113,0.2079,0.2174,0.213,0.2178,0.218,0.2117,0.2113,0.212,0.2166,0.2166,0.2166,0.2165,0,0.1626,0.1642,0.1687,0.1698,0.1724,0.1772,0.1805,0.1844,0.1902,0.1942,0.1988,0.2032,0.2071,0.2129,0.2141,0.2207,0.2203,0.2202,0.221,0.2127,0.2123,0.2083,0.2056,0.2169,0.2168,0.2167,0.2167,0,0.1592,0.1621,0.1642,0.1695,0.1708,0.1726,0.1788,0.1815,0.188,0.1935,0.1957,0.2051,0.2144,0.2198,0.2258,0.2258,0.2251,0.2324,0.2241,0.2237,0.2218,0.2196,0.2139,0.2076,0.2379,0.2381,0.2382,0,0.1576,0.1583,0.1624,0.1632,0.1653,0.1687,0.1713,0.1786,0.1826,0.1947,0.1977,0.2095,0.2181,0.2314,0.235,0.2414,0.2316,0.2357,0.2276,0.2232,0.2212,0.2103,0.2044,0.2203,0.2203,0.2203,0.2202,0,0.1546,0.1556,0.1574,0.1591,0.1611,0.1632,0.1683,0.1712,0.1811,0.1876,0.1987,0.2071,0.2235,0.2288,0.2395,0.2408,0.2248,0.2354,0.2312,0.2094,0.1969,0.1906,0.2148,0.22,0.22,0.22,0.22,0.22,0.1515,0.1514,0.1534,0.154,0.1562,0.1574,0.1576,0.165,0.171,0.1802,0.1933,0.2031,0.2174,0.2327,0.2335,0.2308,0.2268,0.222,0.2206,0.2106,0.2013,0.2278,0.2337,0.2338,0.2339,0.2339,0.234,0,0.1468,0.1472,0.1484,0.1487,0.1479,0.1509,0.1549,0.1548,0.1598,0.1726,0.182,0.1969,0.206,0.2154,0.2217,0.2154,0.2017,0.2094,0.1892,0.1847,0.2089,0.205,0.2045,0.2045,0.2045,0.2045,0.2045,0.2045,0.1446,0.143,0.1431,0.1395,0.1396,0.1363,0.1365,0.139,0.1461,0.1557,0.1645,0.1759,0.1985,0.2122,0.2099,0.2033,0.185,0.1783,0.1776,0.193,0.1938,0.1946,0.1903,0.1867,0.1866,0.1426,0.1423,0.1421]},{"header":{"parameterUnit":"m.s-1","parameterCategory":2,"la1":30.2991,"la2":30.254,"lo1":-89.0895,"lo2":-89.0444,"dy":0.0017,"dx":0.0017,"nx":28,"ny":28,"refTime":"2025-04-24T03:00:00:Z","depth":"0","parameterNumber":3,"parameterNumberName":"V-component_of_CURRENTS"},"data":[0,0,0,0,0,0,0,0,0,0,0,0,0,0,0,0,0,0,0,0,0,0,0,0,0,0,0,0,0,0,0,0,0,0,0,0,0,0,0,0,0,0,0,0,0,0,0,0,0,0,0,0,0,0,0,0,0,0,-0.0028,-0.0029,0,-0.0084,-0.0084,-0.0085,-0.0114,-0.0115,-0.0115,-0.0115,-0.0128,-0.0128,-0.0128,0,0,0,0,0,0,0,0,0,0,0,0,0,0.007,0.0068,-0.0028,-0.0029,-0.003,-0.0084,-0.0084,-0.0085,-0.0114,-0.0115,-0.0115,-0.0115,-0.0128,-0.0128,-0.0129,0,0,0,0,0,0,0,0,0,0,0,0,0,0.0024,0.0068,-0.0028,-0.0052,-0.0055,-0.0084,-0.0084,-0.0085,-0.0114,-0.0115,-0.0115,-0.0115,-0.0128,-0.0128,-0.0129,-0.0124,0,0,-0.0129,-0.0129,0,0,0,0,0,0,0,0,0.0026,0.002,-0.0048,-0.0051,-0.0054,-0.0094,-0.0055,-0.0097,-0.0114,-0.009,-0.0115,-0.0115,-0.0114,-0.0115,-0.0123,-0.0125,-0.0125,-0.0129,-0.0129,-0.013,-0.013,0,0,0,0,0,0,0,0.003,0.0023,-0.0049,-0.0049,-0.0053,-0.0054,-0.0061,-0.0063,-0.0097,-0.0092,-0.0095,-0.0104,-0.0115,-0.0123,-0.0124,-0.0125,-0.0129,-0.013,-0.013,-0.013,-0.0123,-0.0123,0,0,0,0,0,0,0.0032,0.0025,-0.0047,-0.0051,-0.0016,-0.0056,-0.0064,-0.008,-0.0098,-0.0103,-0.0103,-0.0105,-0.0122,-0.0123,-0.0124,-0.0111,-0.013,-0.013,-0.013,-0.0123,-0.0123,-0.0122,0,0,0,0,0,0,0.0035,0.0026,-0.0045,-0.0014,-0.0024,-0.0058,-0.0075,-0.008,-0.009,-0.0108,-0.0111,-0.0107,-0.0123,-0.0124,-0.0121,-0.0112,-0.013,-0.013,-0.0124,-0.0123,-0.0123,-0.0091,0,0,0,0,0,0,0.0037,0.0027,0.0023,-0.0015,-0.0026,-0.0055,-0.0075,-0.0081,-0.0095,-0.0098,-0.0112,-0.0113,-0.0123,-0.0121,-0.0121,-0.0113,-0.013,-0.0124,-0.0123,-0.0123,-0.0092,-0.0089,-0.0087,0,0,0,0,0,0.0041,0.004,0.0023,0.0015,-0.0032,-0.0055,-0.006,-0.0084,-0.0095,-0.0094,-0.0104,-0.0113,-0.0117,-0.012,-0.0121,-0.0113,-0.0124,-0.0124,-0.0123,-0.0094,-0.009,-0.0087,0,0,0,0,0,0,0.0087,0.0035,0.0017,0.0,-0.0024,-0.006,-0.0061,-0.0081,-0.009,-0.0088,-0.0107,-0.0109,-0.0104,-0.0112,-0.0115,-0.011,-0.0123,-0.0122,-0.0101,-0.0097,-0.0094,-0.0089,-0.013,0,0,0,0,0,0.0092,0.0075,0.003,0.0021,0.0008,-0.0026,-0.0037,-0.0055,-0.0072,-0.0077,-0.009,-0.0099,-0.0102,-0.0102,-0.0107,-0.0101,-0.0119,-0.0097,-0.0094,-0.0092,-0.0088,-0.0117,-0.0117,-0.012,-0.012,-0.012,0,0,0.0109,0.0078,0.007,0.003,0.0009,0.0002,-0.0032,-0.0045,-0.0047,-0.0075,-0.0073,-0.0088,-0.0098,-0.0094,-0.0092,-0.0099,-0.0099,-0.0091,-0.0089,-0.0086,-0.0116,-0.0116,-0.0116,-0.0119,-0.012,-0.012,0,0,0.0141,0.0105,0.0104,0.0084,0.0051,0.0029,0.0026,-0.0011,-0.0022,-0.0027,-0.0047,-0.0057,-0.0063,-0.0072,-0.0076,-0.006,-0.0084,-0.0061,-0.0041,-0.0069,-0.0069,-0.007,-0.0087,-0.0089,-0.0059,-0.0059,-0.0059,0,0.0165,0.0151,0.0105,0.0101,0.0091,0.0043,0.0049,0.0031,0.0002,-0.0004,-0.0019,-0.0041,-0.0053,-0.005,-0.0047,-0.0053,-0.0072,-0.0052,-0.0066,-0.0067,-0.0068,-0.0085,-0.0088,-0.0058,-0.0058,-0.0058,-0.0058,0,0.0195,0.0185,0.0186,0.016,0.0145,0.0143,0.0105,0.0093,0.0069,0.0046,0.0034,0.0009,-0.0006,-0.0012,-0.0024,-0.0032,-0.0044,-0.006,-0.0075,-0.0065,-0.0084,-0.0088,-0.0055,-0.0056,-0.0056,-0.0057,0,0,0.0248,0.0213,0.0215,0.0214,0.0175,0.0169,0.0163,0.0142,0.0141,0.0104,0.01,0.0077,0.0047,0.0041,0.0017,-0.0009,-0.0032,-0.0035,-0.0038,-0.0052,-0.0089,-0.0067,-0.0068,-0.0056,-0.0056,-0.0057,-0.0098,0,0.0289,0.0299,0.0267,0.0283,0.0284,0.0239,0.0237,0.0212,0.0182,0.0166,0.0123,0.0112,0.0073,0.0066,0.0031,-0.0015,-0.0041,-0.0019,-0.0096,-0.0098,-0.0079,-0.0072,-0.0053,-0.0086,-0.0101,-0.0102,-0.0102,0,0.0328,0.0328,0.0348,0.0337,0.0334,0.0336,0.0318,0.0311,0.0269,0.0245,0.021,0.0171,0.0134,0.0096,0.0013,0.0027,-0.0026,-0.0068,-0.0071,-0.0063,-0.0082,-0.0099,-0.0092,-0.0194,-0.0108,-0.0108,-0.0107,0,0.0385,0.0386,0.0406,0.0401,0.0379,0.0383,0.0373,0.0337,0.0334,0.0294,0.0288,0.0223,0.0205,0.0118,0.0033,0.0017,-0.0057,-0.0091,-0.012,-0.0119,-0.0124,-0.0122,-0.0223,-0.015,-0.0149,-0.0149,-0.0149,0,0.0433,0.0451,0.0435,0.0443,0.0468,0.0435,0.0451,0.0428,0.0402,0.0409,0.0335,0.0337,0.0208,0.015,0.0053,-0.0032,-0.0042,-0.0111,-0.0128,-0.011,-0.0107,-0.0212,-0.0275,-0.0151,-0.0151,-0.015,-0.015,0,0.0484,0.0475,0.0494,0.0487,0.049,0.0506,0.0503,0.0512,0.0483,0.049,0.0483,0.0422,0.0357,0.0235,0.011,0.0016,-0.0135,-0.0107,-0.0069,-0.0079,-0.0208,-0.0268,-0.0388,-0.0427,-0.0159,-0.0159,-0.0158,0,0.051,0.0524,0.053,0.0545,0.0543,0.0562,0.0574,0.0553,0.0567,0.0553,0.057,0.0517,0.0505,0.0337,0.0168,0.0012,-0.0103,-0.0088,-0.0118,-0.0206,-0.0287,-0.034,-0.0369,-0.0116,-0.0116,-0.0115,-0.0115,0,0.0557,0.0553,0.0566,0.0595,0.0616,0.0641,0.0664,0.0689,0.0674,0.0697,0.073,0.0726,0.0582,0.0449,0.0235,0.011,-0.0158,-0.0082,-0.0195,-0.0274,-0.0319,-0.0366,-0.0094,-0.011,-0.0111,-0.0111,-0.0111,-0.0111,0.0591,0.0605,0.0617,0.0645,0.0671,0.0712,0.0743,0.0786,0.0834,0.0877,0.0871,0.0897,0.0684,0.0411,0.023,-0.0094,-0.0113,-0.0206,-0.0275,-0.0322,-0.0353,-0.0056,-0.0075,-0.0075,-0.0075,-0.0076,-0.0076,0,0.0628,0.0639,0.0667,0.0696,0.0725,0.0734,0.0794,0.0834,0.0915,0.099,0.1039,0.0976,0.0707,0.0408,-0.0016,-0.0248,-0.0351,-0.0389,-0.0479,-0.0502,-0.0257,-0.0246,-0.0276,-0.0276,-0.0276,-0.0276,-0.0276,-0.0275,0.065,0.0676,0.0679,0.0728,0.0752,0.0798,0.0834,0.0917,0.0989,0.1096,0.1144,0.1175,0.0974,0.0175,-0.0348,-0.0469,-0.0651,-0.0687,-0.0775,-0.0629,-0.0618,-0.0607,-0.0612,-0.0718,-0.0719,-0.0986,-0.0989,-0.0991]}],[{"header":{"parameterUnit":"m.s-1","parameterCategory":2,"la1":30.2991,"la2":30.254,"lo1":-89.0895,"lo2":-89.0444,"dy":0.0017,"dx":0.0017,"nx":28,"ny":28,"refTime":"2025-04-24T03:00:00:Z","depth":"2","parameterNumber":2,"parameterNumberName":"U-component_of_CURRENTS"},"data":[0,0,0,0,0,0,0,0,0,0,0,0,0,0,0,0,0,0,0,0,0,0,0,0,0,0,0,0,0,0,0,0,0,0,0,0,0,0,0,0,0,0,0,0,0,0,0,0,0,0,0,0,0,0,0,0,0,0,0.1704,0.1705,0,0.1734,0.1734,0.1734,0.1719,0.1718,0.1718,0.1717,0.1711,0.1711,0.1711,0,0,0,0,0,0,0,0,0,0,0,0,0,0.1636,0.1637,0.1704,0.1705,0.1705,0.1734,0.1734,0.1734,0.1719,0.1718,0.1718,0.1717,0.171,0.1711,0.1711,0,0,0,0,0,0,0,0,0,0,0,0,0,0.1664,0.1638,0.1704,0.1703,0.1703,0.1734,0.1734,0.1734,0.1719,0.1718,0.1718,0.1717,0.171,0.1711,0.1711,0.1732,0,0,0.1713,0.1713,0,0,0,0,0,0,0,0,0.1662,0.1666,0.1702,0.1703,0.1703,0.1724,0.1708,0.1733,0.172,0.1711,0.1717,0.1716,0.1714,0.1714,0.1719,0.1732,0.1732,0.1713,0.1713,0.1714,0.1714,0,0,0,0,0,0,0,0.166,0.1665,0.1714,0.1703,0.1704,0.1702,0.1704,0.1712,0.1714,0.1712,0.1711,0.1718,0.1713,0.1718,0.1718,0.1731,0.1713,0.1713,0.1714,0.1714,0.1778,0.178,0,0,0,0,0,0,0.1662,0.1663,0.1713,0.1715,0.1683,0.1704,0.1707,0.1716,0.1715,0.1715,0.1719,0.1717,0.1718,0.1718,0.1718,0.1748,0.1714,0.1714,0.1714,0.1777,0.1779,0.178,0,0,0,0,0,0,0.1661,0.1666,0.1712,0.1691,0.1697,0.1706,0.1717,0.1717,0.1725,0.1722,0.172,0.1726,0.1717,0.1717,0.1734,0.1747,0.1714,0.1715,0.1775,0.1777,0.1779,0.1804,0,0,0,0,0,0,0.1659,0.1666,0.1672,0.1691,0.1698,0.1736,0.1718,0.1719,0.1731,0.1729,0.1727,0.1725,0.1716,0.1733,0.1734,0.1747,0.1715,0.1774,0.1776,0.1779,0.1801,0.1807,0.1811,0,0,0,0,0,0.1656,0.1669,0.1673,0.1679,0.1707,0.1737,0.1741,0.1742,0.1733,0.1743,0.1742,0.1726,0.175,0.1735,0.1736,0.1749,0.1772,0.1775,0.1778,0.1799,0.1806,0.1811,0,0,0,0,0,0,0.1644,0.167,0.1674,0.1694,0.1717,0.1735,0.1744,0.1748,0.1757,0.175,0.1743,0.1742,0.1762,0.1759,0.1742,0.1778,0.1759,0.1763,0.1775,0.1781,0.1786,0.1783,0.1716,0,0,0,0,0,0.1646,0.1661,0.1688,0.1705,0.1717,0.1732,0.1743,0.1747,0.1759,0.1761,0.1762,0.1765,0.1778,0.1781,0.179,0.1809,0.1815,0.182,0.1825,0.1829,0.183,0.185,0.1857,0.179,0.179,0.179,0,0,0.1645,0.1663,0.167,0.1704,0.1717,0.1741,0.1736,0.1756,0.1772,0.176,0.1777,0.1783,0.1789,0.181,0.1818,0.1806,0.1857,0.1833,0.1836,0.1835,0.1854,0.1861,0.1866,0.1792,0.1792,0.1792,0,0,0.1651,0.1668,0.1681,0.1707,0.1735,0.1747,0.1756,0.178,0.1785,0.181,0.1805,0.1822,0.1837,0.1846,0.1852,0.1893,0.1884,0.1895,0.1913,0.1933,0.1938,0.1942,0.1976,0.1983,0.1894,0.1895,0.1895,0,0.1644,0.167,0.169,0.1716,0.1737,0.1752,0.1775,0.1791,0.1816,0.1826,0.1817,0.1854,0.1856,0.1886,0.1898,0.1902,0.1914,0.1886,0.1937,0.1942,0.1946,0.1979,0.1986,0.1896,0.1896,0.1896,0.1896,0,0.1663,0.1687,0.17,0.1734,0.1763,0.1785,0.1815,0.1833,0.184,0.1855,0.1887,0.1896,0.1916,0.1924,0.192,0.1956,0.1957,0.1942,0.1917,0.1954,0.1987,0.1994,0.1898,0.1898,0.1897,0.1897,0,0,0.1634,0.1696,0.1703,0.1723,0.1774,0.1796,0.1831,0.1865,0.1883,0.1905,0.1933,0.1958,0.196,0.1968,0.1971,0.1987,0.2032,0.1975,0.1976,0.2,0.2088,0.21,0.2109,0.202,0.2021,0.2022,0.2105,0,0.1637,0.1679,0.1718,0.1761,0.1781,0.1822,0.1857,0.1892,0.1913,0.1944,0.1962,0.1989,0.1979,0.1989,0.2005,0.2027,0.205,0.2012,0.2056,0.2058,0.2056,0.2117,0.1905,0.1961,0.2112,0.2113,0.2114,0,0.1636,0.1666,0.1703,0.1769,0.1785,0.1818,0.1871,0.1905,0.1954,0.1973,0.2002,0.2017,0.2058,0.2035,0.2091,0.2065,0.2081,0.2092,0.2095,0.2099,0.2083,0.1947,0.1969,0.2126,0.2125,0.2124,0.2123,0,0.159,0.1656,0.1681,0.1705,0.178,0.1809,0.1851,0.1907,0.1936,0.1991,0.2015,0.206,0.2088,0.2111,0.2149,0.2118,0.2212,0.217,0.2199,0.2201,0.2027,0.2011,0.2209,0.2209,0.2208,0.2208,0.2208,0,0.1574,0.1601,0.1661,0.1679,0.1713,0.1784,0.1826,0.187,0.1937,0.1978,0.2023,0.2066,0.2105,0.2163,0.2178,0.2233,0.2241,0.2221,0.2227,0.2034,0.2019,0.2157,0.2149,0.2211,0.2211,0.221,0.221,0,0.1532,0.157,0.1598,0.1668,0.1689,0.1715,0.1807,0.1839,0.191,0.1964,0.1986,0.208,0.2169,0.2223,0.2286,0.2277,0.2321,0.2336,0.2124,0.2103,0.2285,0.2278,0.2364,0.2365,0.2366,0.2367,0.2368,0,0.1521,0.1525,0.1569,0.1581,0.1617,0.1669,0.1706,0.1801,0.1848,0.1974,0.2003,0.2117,0.2183,0.2306,0.2303,0.235,0.2393,0.2201,0.2102,0.2307,0.2303,0.2295,0.2287,0.1882,0.1878,0.1876,0.1873,0,0.1496,0.1499,0.1524,0.1531,0.1564,0.1602,0.1675,0.1705,0.1824,0.1881,0.1981,0.2047,0.2166,0.2131,0.2219,0.2212,0.2175,0.2151,0.2411,0.1891,0.1862,0.1856,0.1861,0.1849,0.1851,0.1853,0.1855,0.1856,0.1473,0.1469,0.1479,0.1486,0.1512,0.1533,0.1547,0.1634,0.1693,0.1761,0.1875,0.1908,0.1955,0.1974,0.1956,0.1948,0.2089,0.1992,0.1995,0.2002,0.1947,0.1924,0.1912,0.1915,0.1917,0.1919,0.1921,0,0.1433,0.1437,0.1439,0.1439,0.1429,0.1467,0.1521,0.1518,0.156,0.1637,0.1686,0.1568,0.1577,0.1657,0.1588,0.1623,0.154,0.1585,0.144,0.1467,0.1491,0.1404,0.1228,0.1226,0.1223,0.1222,0,0,0.1416,0.1399,0.1389,0.1348,0.1349,0.1323,0.1332,0.1343,0.1383,0.137,0.1369,0.1451,0.1572,0.134,0.1344,0.1278,0.1351,0.1231,0.1788,0.1642,0.1662,0.1734,0.1635,0,0,0,0,0]},{"header":{"parameterUnit":"m.s-1","parameterCategory":2,"la1":30.2991,"la2":30.254,"lo1":-89.0895,"lo2":-89.0444,"dy":0.0017,"dx":0.0017,"nx":28,"ny":28,"refTime":"2025-04-24T03:00:00:Z","depth":"2","parameterNumber":3,"parameterNumberName":"V-component_of_CURRENTS"},"data":[0,0,0,0,0,0,0,0,0,0,0,0,0,0,0,0,0,0,0,0,0,0,0,0,0,0,0,0,0,0,0,0,0,0,0,0,0,0,0,0,0,0,0,0,0,0,0,0,0,0,0,0,0,0,0,0,0,0,-0.0166,-0.0167,0,-0.0228,-0.0229,-0.0229,-0.026,-0.026,-0.0261,-0.0261,-0.0277,-0.0277,-0.0278,0,0,0,0,0,0,0,0,0,0,0,0,0,-0.0068,-0.0069,-0.0166,-0.0167,-0.0168,-0.0228,-0.0229,-0.0229,-0.026,-0.026,-0.0261,-0.0261,-0.0277,-0.0277,-0.0278,0,0,0,0,0,0,0,0,0,0,0,0,0,-0.0117,-0.007,-0.0166,-0.0192,-0.0195,-0.0228,-0.0229,-0.0229,-0.026,-0.026,-0.0261,-0.0261,-0.0277,-0.0277,-0.0278,-0.0276,0,0,-0.0279,-0.0279,0,0,0,0,0,0,0,0,-0.0114,-0.012,-0.0187,-0.019,-0.0193,-0.0238,-0.02,-0.0243,-0.026,-0.0234,-0.0261,-0.0261,-0.026,-0.0262,-0.0272,-0.0277,-0.0278,-0.0279,-0.0279,-0.028,-0.028,0,0,0,0,0,0,0,-0.0111,-0.0118,-0.0189,-0.0188,-0.0192,-0.0198,-0.0205,-0.0208,-0.0243,-0.0236,-0.0239,-0.0248,-0.0262,-0.0272,-0.0273,-0.0278,-0.0279,-0.028,-0.028,-0.028,-0.0278,-0.0277,0,0,0,0,0,0,-0.0106,-0.0115,-0.0187,-0.0191,-0.0155,-0.0199,-0.0207,-0.0222,-0.0244,-0.0249,-0.0248,-0.0249,-0.0271,-0.0272,-0.0273,-0.026,-0.028,-0.028,-0.028,-0.0278,-0.0277,-0.0277,0,0,0,0,0,0,-0.0104,-0.0112,-0.0185,-0.0155,-0.0165,-0.0201,-0.0217,-0.0223,-0.0232,-0.0254,-0.0257,-0.025,-0.0271,-0.0273,-0.0272,-0.0261,-0.028,-0.0281,-0.0278,-0.0278,-0.0277,-0.0241,0,0,0,0,0,0,-0.0101,-0.0111,-0.0114,-0.0155,-0.0166,-0.0196,-0.0218,-0.0224,-0.0238,-0.024,-0.0257,-0.0259,-0.0271,-0.0271,-0.0272,-0.0262,-0.0281,-0.0279,-0.0278,-0.0277,-0.0243,-0.0239,-0.0236,0,0,0,0,0,-0.0097,-0.0097,-0.0113,-0.0122,-0.0171,-0.0196,-0.0202,-0.0227,-0.0238,-0.0236,-0.0249,-0.0258,-0.0268,-0.0271,-0.0272,-0.0262,-0.0279,-0.0278,-0.0277,-0.0244,-0.024,-0.0237,0,0,0,0,0,0,-0.005,-0.0102,-0.012,-0.0135,-0.0161,-0.0202,-0.0202,-0.0223,-0.0234,-0.0231,-0.0253,-0.0255,-0.0251,-0.0261,-0.0264,-0.026,-0.0275,-0.0275,-0.0249,-0.0246,-0.0243,-0.0236,-0.0281,0,0,0,0,0,-0.0043,-0.0058,-0.0106,-0.0114,-0.0127,-0.0164,-0.0175,-0.0194,-0.0214,-0.0219,-0.0234,-0.0245,-0.025,-0.0251,-0.0258,-0.0253,-0.0272,-0.0249,-0.0246,-0.0243,-0.0239,-0.0266,-0.0265,-0.0275,-0.0275,-0.0275,0,0,-0.0026,-0.0056,-0.0064,-0.0105,-0.0126,-0.0135,-0.017,-0.0184,-0.0186,-0.0217,-0.0217,-0.0233,-0.0247,-0.0244,-0.0243,-0.025,-0.0248,-0.0242,-0.0239,-0.0237,-0.0265,-0.0265,-0.0264,-0.0274,-0.0274,-0.0274,0,0,0.0004,-0.0027,-0.003,-0.005,-0.0083,-0.0107,-0.0109,-0.0148,-0.0159,-0.0166,-0.0188,-0.0198,-0.0208,-0.0219,-0.0224,-0.0208,-0.0232,-0.0209,-0.0186,-0.0213,-0.0213,-0.0213,-0.0228,-0.0229,-0.0207,-0.0207,-0.0207,0,0.0026,0.0013,-0.003,-0.0035,-0.0044,-0.0091,-0.0087,-0.0106,-0.0137,-0.0143,-0.0158,-0.0183,-0.0196,-0.0195,-0.0192,-0.02,-0.0218,-0.0198,-0.0209,-0.021,-0.021,-0.0226,-0.0228,-0.0205,-0.0205,-0.0205,-0.0206,0,0.005,0.0043,0.0044,0.0018,0.0005,0.0002,-0.0034,-0.0044,-0.0067,-0.0091,-0.0102,-0.013,-0.0145,-0.0153,-0.0167,-0.0174,-0.0185,-0.0203,-0.0218,-0.0207,-0.0224,-0.0227,-0.0202,-0.0203,-0.0204,-0.0204,0,0,0.0085,0.0064,0.0065,0.0068,0.0033,0.0028,0.0024,0.0004,0.0003,-0.0032,-0.0035,-0.006,-0.0088,-0.0096,-0.0122,-0.0147,-0.0166,-0.0174,-0.0176,-0.0188,-0.0219,-0.0205,-0.0208,-0.019,-0.019,-0.0191,-0.0228,0,0.0117,0.0126,0.0106,0.0125,0.0124,0.0091,0.0092,0.007,0.0043,0.0029,-0.0012,-0.0023,-0.0063,-0.0069,-0.0102,-0.0149,-0.0173,-0.0154,-0.023,-0.0232,-0.022,-0.021,-0.0194,-0.0224,-0.0231,-0.0231,-0.0232,0,0.0141,0.0146,0.0166,0.0172,0.0171,0.0178,0.017,0.0165,0.0129,0.0108,0.0076,0.0039,0.0004,-0.0034,-0.0114,-0.0102,-0.0155,-0.0197,-0.02,-0.0202,-0.0223,-0.0238,-0.023,-0.0237,-0.0236,-0.0236,-0.0236,0,0.0176,0.0188,0.021,0.021,0.0206,0.0219,0.0218,0.0191,0.0191,0.0158,0.0154,0.0094,0.0077,-0.0008,-0.0092,-0.0108,-0.018,-0.0215,-0.0251,-0.025,-0.0258,-0.0257,-0.0271,-0.0271,-0.0271,-0.0271,-0.0271,0,0.0206,0.0229,0.0232,0.0245,0.0279,0.0262,0.0289,0.0272,0.0258,0.0268,0.02,0.0203,0.0081,0.0025,-0.007,-0.0158,-0.0164,-0.0241,-0.0259,-0.0243,-0.024,-0.0271,-0.027,-0.0272,-0.0272,-0.0271,-0.0271,0,0.0237,0.0238,0.0266,0.0281,0.0293,0.0315,0.0339,0.0354,0.0334,0.0346,0.0341,0.0286,0.0223,0.0106,-0.0016,-0.011,-0.0208,-0.0236,-0.02,-0.0212,-0.027,-0.0267,-0.0294,-0.0294,-0.0294,-0.0294,-0.0294,0,0.0257,0.0269,0.0294,0.0318,0.0331,0.0366,0.0389,0.0387,0.0409,0.0405,0.0423,0.0374,0.0354,0.0188,0.0021,-0.0134,-0.0165,-0.0228,-0.026,-0.0258,-0.0272,-0.027,-0.0267,-0.0258,-0.0258,-0.0257,-0.0257,0,0.0294,0.0294,0.0317,0.0355,0.0392,0.0432,0.0474,0.0502,0.0506,0.053,0.0558,0.0545,0.0403,0.026,0.0054,-0.0058,-0.0207,-0.0226,-0.0236,-0.0247,-0.0225,-0.0238,-0.0237,-0.0254,-0.0254,-0.0255,-0.0255,-0.0255,0.0326,0.0339,0.0357,0.0398,0.0439,0.0489,0.0529,0.0585,0.0636,0.0668,0.0656,0.0644,0.047,0.0221,0.004,-0.0156,-0.0162,-0.0253,-0.0254,-0.0255,-0.0237,-0.0215,-0.0239,-0.0239,-0.0239,-0.0239,-0.0239,0,0.0351,0.0368,0.0401,0.0444,0.0484,0.0506,0.0578,0.0617,0.0696,0.074,0.0764,0.0604,0.0452,0.0265,-0.0019,-0.0198,-0.0226,-0.0254,-0.0255,-0.0257,-0.0258,-0.024,-0.0243,-0.0243,-0.0244,-0.0244,0,0,0.0365,0.0394,0.0399,0.0466,0.0506,0.0567,0.061,0.068,0.0731,0.0774,0.0781,0.0739,0.0519,0.0307,0.0073,-0.0079,-0.0131,-0.0113,-0.0093,-0.0068,-0.0067,-0.024,-0.0211,0,0,0,0,0]}],[{"header":{"parameterUnit":"m.s-1","parameterCategory":2,"la1":30.2991,"la2":30.254,"lo1":-89.0895,"lo2":-89.0444,"dy":0.0017,"dx":0.0017,"nx":28,"ny":28,"refTime":"2025-04-24T03:00:00:Z","depth":"4","parameterNumber":2,"parameterNumberName":"U-component_of_CURRENTS"},"data":[0,0,0,0,0,0,0,0,0,0,0,0,0,0,0,0,0,0,0,0,0,0,0,0,0,0,0,0,0,0,0,0,0,0,0,0,0,0,0,0,0,0,0,0,0,0,0,0,0,0,0,0,0,0,0,0,0,0,0.0807,0.0808,0,0.0801,0.08,0.08,0.0808,0.0808,0.0809,0.081,0.0894,0.0895,0.0897,0,0,0,0,0,0,0,0,0,0,0,0,0,0.0817,0.0816,0.0807,0.0808,0.0808,0.0801,0.08,0.08,0.0807,0.0809,0.081,0.0811,0.0894,0.0895,0.0897,0,0,0,0,0,0,0,0,0,0,0,0,0,0.0805,0.0815,0.0807,0.0817,0.0818,0.0801,0.08,0.0799,0.0807,0.0809,0.081,0.0811,0.0893,0.0895,0.0897,0.0881,0,0,0.0903,0.0904,0,0,0,0,0,0,0,0,0.0805,0.0803,0.0815,0.0816,0.0818,0.0813,0.0835,0.0834,0.0807,0.0803,0.081,0.0812,0.0879,0.0882,0.0866,0.0885,0.0888,0.0903,0.0905,0.0905,0.0906,0,0,0,0,0,0,0,0.0806,0.0804,0.0797,0.0816,0.0817,0.0819,0.0818,0.0833,0.0829,0.0804,0.0806,0.0817,0.088,0.0864,0.0869,0.0889,0.0903,0.0905,0.0906,0.0907,0.1018,0.102,0,0,0,0,0,0,0.082,0.0804,0.0798,0.0798,0.0823,0.0818,0.0817,0.0807,0.0827,0.0833,0.0816,0.0817,0.086,0.0866,0.0872,0.0958,0.0905,0.0907,0.0908,0.1016,0.1018,0.102,0,0,0,0,0,0,0.082,0.0819,0.0798,0.0808,0.0807,0.0817,0.0806,0.0806,0.0824,0.0837,0.0843,0.0838,0.0861,0.0869,0.0924,0.0958,0.0908,0.091,0.1014,0.1017,0.1019,0.1064,0,0,0,0,0,0,0.082,0.0818,0.0829,0.0808,0.0807,0.081,0.0805,0.0805,0.083,0.0833,0.0857,0.0864,0.0863,0.0921,0.0926,0.0959,0.0912,0.1012,0.1015,0.1018,0.106,0.1067,0.1074,0,0,0,0,0,0.082,0.083,0.0829,0.083,0.0816,0.0812,0.081,0.0818,0.083,0.0838,0.0868,0.0865,0.0945,0.0924,0.0929,0.0964,0.101,0.1014,0.1018,0.1057,0.1066,0.1074,0,0,0,0,0,0,0.0843,0.0832,0.083,0.0838,0.0836,0.0816,0.0833,0.0835,0.0858,0.0878,0.0884,0.0893,0.0948,0.0955,0.0931,0.1007,0.0979,0.0984,0.1006,0.1015,0.1022,0.1049,0.0913,0,0,0,0,0,0.0852,0.0857,0.0844,0.0855,0.0855,0.0847,0.0854,0.0859,0.0872,0.0883,0.0903,0.0934,0.0959,0.0989,0.1004,0.1051,0.1037,0.1079,0.1086,0.1092,0.112,0.112,0.1129,0.1033,0.1033,0.1033,0,0,0.0868,0.0863,0.0869,0.0861,0.0858,0.0858,0.0853,0.0873,0.0883,0.0892,0.093,0.0954,0.0975,0.1021,0.1048,0.104,0.1107,0.1097,0.1101,0.1127,0.1125,0.1134,0.1142,0.1036,0.1035,0.1035,0,0,0.0892,0.0892,0.0899,0.0897,0.0906,0.0897,0.0911,0.091,0.0922,0.0956,0.0969,0.1015,0.1055,0.1074,0.1088,0.1145,0.1134,0.1168,0.1238,0.1237,0.1245,0.1252,0.1218,0.1221,0.1183,0.1183,0.1183,0,0.0912,0.091,0.0905,0.0907,0.0912,0.0917,0.0923,0.0928,0.0952,0.0966,0.0981,0.1046,0.1069,0.112,0.1168,0.1158,0.1162,0.12,0.1245,0.1251,0.1257,0.1222,0.1225,0.1185,0.1185,0.1185,0.1185,0,0.0929,0.0934,0.0941,0.0937,0.0942,0.0953,0.0955,0.0976,0.0998,0.1002,0.1061,0.1095,0.1143,0.1161,0.12,0.127,0.1258,0.1239,0.1219,0.1269,0.1228,0.1231,0.1189,0.1188,0.1187,0.1187,0,0,0.0945,0.095,0.0952,0.0951,0.0959,0.0958,0.0984,0.0994,0.1018,0.1056,0.1089,0.1164,0.1206,0.1231,0.1274,0.1312,0.1359,0.1339,0.1338,0.1298,0.136,0.1315,0.1312,0.1369,0.137,0.1372,0.1303,0,0.0957,0.0965,0.0965,0.0974,0.0975,0.0982,0.1005,0.1025,0.1045,0.1081,0.1123,0.118,0.1221,0.1284,0.1325,0.1366,0.1376,0.1379,0.1327,0.1324,0.1271,0.1318,0.1376,0.1305,0.1305,0.1305,0.1306,0,0.0963,0.0969,0.0984,0.0989,0.0991,0.1005,0.1032,0.1052,0.1095,0.1127,0.1185,0.1223,0.1319,0.1333,0.1394,0.1412,0.1411,0.1413,0.1408,0.1363,0.1286,0.1252,0.131,0.1309,0.1309,0.1309,0.1308,0,0.0966,0.0972,0.0987,0.0988,0.1006,0.1024,0.1038,0.1074,0.108,0.1172,0.1202,0.1284,0.1344,0.1373,0.1423,0.1429,0.1456,0.142,0.1344,0.1337,0.1374,0.1368,0.1425,0.1425,0.1425,0.1426,0.1426,0,0.0959,0.0966,0.0994,0.1001,0.103,0.1039,0.1071,0.1105,0.1132,0.1157,0.1245,0.128,0.1376,0.1402,0.1422,0.1408,0.1434,0.1374,0.1333,0.139,0.1387,0.1373,0.1368,0.1423,0.1423,0.1424,0.1424,0,0.0943,0.0966,0.0983,0.1017,0.1034,0.1054,0.1067,0.1074,0.1135,0.117,0.1211,0.1284,0.1349,0.1383,0.1421,0.139,0.138,0.1348,0.1404,0.1364,0.1249,0.1247,0.1243,0.1241,0.124,0.1238,0.1237,0,0.0926,0.0942,0.0997,0.1011,0.1026,0.1054,0.107,0.1095,0.1087,0.116,0.1165,0.1246,0.1306,0.128,0.1347,0.1333,0.1322,0.1292,0.1297,0.1278,0.1238,0.1239,0.1239,0.1235,0.1235,0.1234,0.1234,0,0.0892,0.0932,0.0949,0.0997,0.1017,0.1016,0.1029,0.1006,0.1048,0.1111,0.1112,0.1145,0.1195,0.1232,0.1245,0.1232,0.1315,0.1275,0.1278,0.1282,0.1268,0.123,0.1232,0.1229,0.1229,0.123,0.123,0,0.0872,0.0881,0.0926,0.0952,0.0983,0.0958,0.0966,0.0947,0.0941,0.1006,0.1011,0.1099,0.1176,0.1176,0.1185,0.1192,0.1168,0.1132,0.1141,0.1148,0.1161,0.1131,0.1031,0,0,0,0,0,0.0837,0.084,0.0865,0.0883,0.0909,0.0923,0.0927,0.0927,0.0975,0.095,0.0962,0.101,0.1046,0.1074,0.1061,0.1149,0.1176,0.1131,0.114,0.1199,0.1206,0.1237,0,0,0,0,0,0,0.0813,0.0837,0.0846,0.0823,0.0822,0.0825,0.0826,0.085,0.0819,0.0887,0.0895,0.0975,0.1005,0.1053,0.1054,0.1067,0.1057,0.1182,0.118,0.1196,0.1202,0.1206,0.1241,0,0,0,0,0]},{"header":{"parameterUnit":"m.s-1","parameterCategory":2,"la1":30.2991,"la2":30.254,"lo1":-89.0895,"lo2":-89.0444,"dy":0.0017,"dx":0.0017,"nx":28,"ny":28,"refTime":"2025-04-24T03:00:00:Z","depth":"4","parameterNumber":3,"parameterNumberName":"V-component_of_CURRENTS"},"data":[0,0,0,0,0,0,0,0,0,0,0,0,0,0,0,0,0,0,0,0,0,0,0,0,0,0,0,0,0,0,0,0,0,0,0,0,0,0,0,0,0,0,0,0,0,0,0,0,0,0,0,0,0,0,0,0,0,0,-0.0027,-0.0027,0,-0.0055,-0.0055,-0.0055,-0.0075,-0.0075,-0.0076,-0.0076,-0.011,-0.011,-0.0111,0,0,0,0,0,0,0,0,0,0,0,0,0,0.0006,0.0006,-0.0027,-0.0027,-0.0028,-0.0055,-0.0055,-0.0055,-0.0075,-0.0075,-0.0076,-0.0076,-0.011,-0.011,-0.0111,0,0,0,0,0,0,0,0,0,0,0,0,0,-0.001,0.0006,-0.0027,-0.0043,-0.0046,-0.0055,-0.0055,-0.0055,-0.0075,-0.0075,-0.0076,-0.0077,-0.011,-0.011,-0.0111,-0.0102,0,0,-0.0113,-0.0113,0,0,0,0,0,0,0,0,-0.0009,-0.0011,-0.004,-0.0042,-0.0045,-0.0065,-0.0056,-0.0072,-0.0074,-0.006,-0.0076,-0.0077,-0.0097,-0.0099,-0.0098,-0.0103,-0.0105,-0.0113,-0.0114,-0.0114,-0.0114,0,0,0,0,0,0,0,-0.0008,-0.001,-0.0035,-0.0041,-0.0044,-0.0051,-0.0054,-0.0059,-0.0072,-0.0061,-0.0064,-0.0072,-0.0098,-0.0097,-0.0099,-0.0105,-0.0113,-0.0114,-0.0114,-0.0115,-0.0122,-0.0122,0,0,0,0,0,0,-0.001,-0.0009,-0.0034,-0.0036,-0.0032,-0.0052,-0.0055,-0.0055,-0.0072,-0.0076,-0.0071,-0.0073,-0.0095,-0.0098,-0.01,-0.0093,-0.0114,-0.0115,-0.0115,-0.0122,-0.0122,-0.0122,0,0,0,0,0,0,-0.0009,-0.0012,-0.0033,-0.0026,-0.003,-0.0052,-0.0052,-0.0055,-0.0062,-0.008,-0.0084,-0.0076,-0.0096,-0.0099,-0.0105,-0.0094,-0.0115,-0.0116,-0.0123,-0.0122,-0.0122,-0.0077,0,0,0,0,0,0,-0.0008,-0.0011,-0.0009,-0.0026,-0.003,-0.0037,-0.0052,-0.0056,-0.0068,-0.007,-0.0085,-0.0089,-0.0097,-0.0103,-0.0105,-0.0096,-0.0116,-0.0123,-0.0122,-0.0122,-0.0078,-0.0075,-0.0072,0,0,0,0,0,-0.0007,-0.0004,-0.0008,-0.0011,-0.0027,-0.0037,-0.0039,-0.0056,-0.0067,-0.0065,-0.0076,-0.0089,-0.0102,-0.0104,-0.0106,-0.0096,-0.0123,-0.0123,-0.0122,-0.008,-0.0075,-0.0072,0,0,0,0,0,0,0.0009,-0.0006,-0.0011,-0.0014,-0.0024,-0.0042,-0.0043,-0.0056,-0.0063,-0.0066,-0.0083,-0.0086,-0.0086,-0.01,-0.0101,-0.0099,-0.0116,-0.0116,-0.0083,-0.0079,-0.0076,-0.0068,-0.0117,0,0,0,0,0,0.0014,0.0015,-0.0002,-0.0003,-0.0007,-0.0024,-0.0031,-0.0042,-0.0054,-0.0058,-0.0068,-0.008,-0.0084,-0.0089,-0.0094,-0.0093,-0.0104,-0.009,-0.0086,-0.0083,-0.008,-0.0085,-0.0082,-0.012,-0.012,-0.012,0,0,0.0018,0.0011,0.001,0.0001,-0.0007,-0.0008,-0.0029,-0.0037,-0.0034,-0.006,-0.0055,-0.0067,-0.0081,-0.0076,-0.0078,-0.0087,-0.0079,-0.0083,-0.008,-0.0078,-0.0084,-0.008,-0.0077,-0.012,-0.012,-0.012,0,0,0.0023,0.0023,0.0024,0.002,0.0008,0.0002,-0.0002,-0.0017,-0.0017,-0.0015,-0.0032,-0.0034,-0.0046,-0.0047,-0.0051,-0.0033,-0.0059,-0.0045,-0.0022,-0.0027,-0.0024,-0.0021,-0.003,-0.0029,-0.0045,-0.0045,-0.0045,0,0.0027,0.0028,0.0022,0.0023,0.0021,0.0007,0.0007,0.0011,-0.0003,0.0004,-0.0009,-0.0014,-0.0026,-0.0016,-0.0014,-0.0023,-0.004,-0.0034,-0.0022,-0.0019,-0.0017,-0.0027,-0.0026,-0.0043,-0.0043,-0.0044,-0.0044,0,0.0031,0.0035,0.0036,0.0038,0.0038,0.0037,0.0037,0.0045,0.0042,0.0042,0.0053,0.0041,0.0034,0.003,0.0012,0.0019,-0.0002,-0.0014,-0.0029,-0.001,-0.0023,-0.0022,-0.004,-0.0041,-0.0041,-0.0042,0,0,0.0033,0.0037,0.0038,0.0047,0.0046,0.0049,0.0066,0.0079,0.0093,0.0093,0.0109,0.0106,0.0093,0.0086,0.0065,0.0059,0.0059,0.0023,0.0022,0.0019,0.0037,-0.0006,-0.001,0.0041,0.0041,0.0041,0.0023,0,0.0037,0.0044,0.0045,0.0061,0.0069,0.0074,0.0092,0.0106,0.0116,0.0133,0.0136,0.0139,0.0116,0.0107,0.0101,0.0066,0.0061,0.0065,0.0014,0.0013,-0.0023,-0.0011,0.0042,0.0023,0.0023,0.0023,0.0023,0,0.0041,0.0048,0.006,0.0083,0.0086,0.0096,0.0128,0.0142,0.0169,0.0175,0.0184,0.0175,0.0172,0.0145,0.0115,0.0112,0.0077,0.0054,0.0053,-0.0003,-0.003,-0.0001,0.0024,0.0024,0.0024,0.0024,0.0024,0,0.005,0.0063,0.0076,0.0082,0.0102,0.0117,0.0131,0.0156,0.0183,0.0199,0.0209,0.0206,0.0199,0.0166,0.011,0.0108,0.0068,0.0064,0.0001,-0.0002,0.0022,0.002,0.0048,0.0048,0.0048,0.0048,0.0048,0,0.0059,0.0072,0.0084,0.0094,0.0124,0.013,0.0163,0.0182,0.0209,0.0242,0.0226,0.0238,0.02,0.017,0.0121,0.0055,0.0077,0.0007,-0.0009,0.0041,0.0041,0.0023,0.002,0.0047,0.0047,0.0048,0.0048,0,0.0069,0.0073,0.0097,0.0119,0.0131,0.0153,0.019,0.0213,0.0229,0.0269,0.0273,0.0266,0.0217,0.0166,0.0108,0.0066,0.001,-0.0021,0.0032,0.0018,-0.0055,-0.0055,-0.0075,-0.0077,-0.0078,-0.0079,-0.008,0,0.0073,0.0084,0.0117,0.0138,0.015,0.018,0.0202,0.0228,0.0255,0.0286,0.0306,0.0271,0.025,0.0145,0.008,-0.0015,-0.0034,-0.0059,-0.0048,-0.0053,-0.0067,-0.0065,-0.0063,-0.0083,-0.0083,-0.0083,-0.0084,0,0.0084,0.0094,0.0114,0.0156,0.0184,0.0217,0.025,0.0275,0.0306,0.0319,0.0331,0.0283,0.0221,0.0142,0.005,-0.0014,-0.0038,-0.0074,-0.0071,-0.006,-0.0063,-0.0075,-0.0071,-0.0089,-0.0088,-0.0087,-0.0087,0,0.0092,0.0106,0.0133,0.0174,0.0211,0.0247,0.0262,0.0288,0.0316,0.035,0.0351,0.029,0.0264,0.0141,0.0064,-0.0017,-0.0028,-0.004,-0.0039,-0.0034,-0.0027,-0.0024,-0.0049,0,0,0,0,0,0.0096,0.0111,0.0148,0.0191,0.0229,0.0253,0.0294,0.0305,0.0334,0.0346,0.0355,0.0296,0.0187,0.0141,0.0053,0.0029,-0.0052,-0.0078,-0.0068,-0.0116,-0.011,-0.0114,0,0,0,0,0,0,0.0097,0.0122,0.0145,0.0199,0.0231,0.0271,0.0298,0.0317,0.0323,0.0343,0.0283,0.0271,0.0156,0.0235,0.005,0.0026,0.002,-0.0126,-0.0128,-0.0119,-0.0114,-0.0109,-0.0111,0,0,0,0,0]}]]